ZHUHAI-1 02 (CAS-4B)

Last updated on Thu Nov 21 2024 00:02:27 GMT+0000 (Coordinated Universal Time)

1 42759U 17034B 24325.57247709 .00040779 00000+0 10208-2 0 9998 2 42759 43.0154 56.5601 0014327 330.8133 29.1921 15.39308822411402
UTC large
Height (km)
Speed (km/s)
/
Latitude / Longitude
Inclination (degrees)
Orbital Period (minutes)
Azimuth
Elevation
Range (km)
Doppler Factor

Next 0 passes for location: London (51.5072 / 0.1276)

Sorry there are no passes over London.